Time,TemperatureF,DewpointF,PressureIn,WindDirection,WindDirectionDegrees,WindSpeedMPH,WindSpeedGustMPH,Humidity,HourlyPrecipIn,Conditions,Clouds,dailyrainin,SoftwareType,DateUTC
2013-03-10 00:13:00,40.4,33.0,30.30,SSE,149,0.0,-999.0,74,-99.99,,,0.00,weatherlink.com 1.10,2013-03-10 05:13:00,
2013-03-10 00:28:00,40.1,33.0,30.30,SSE,149,0.0,-999.0,75,-99.99,,,0.00,weatherlink.com 1.10,2013-03-10 05:28:00,
2013-03-10 00:58:00,40.0,33.0,30.30,SSE,149,0.0,-999.0,76,-99.99,,,0.00,weatherlink.com 1.10,2013-03-10 05:58:00,
2013-03-10 01:13:00,38.7,32.0,30.31,SSE,149,0.0,-999.0,78,-99.99,,,0.00,weatherlink.com 1.10,2013-03-10 06:13:00,
2013-03-10 01:28:00,38.3,32.0,30.31,SSE,149,0.0,-999.0,79,-99.99,,,0.00,weatherlink.com 1.10,2013-03-10 06:28:00,
2013-03-10 01:58:00,38.2,33.0,30.31,SSE,149,0.0,-999.0,80,-99.99,,,0.00,weatherlink.com 1.10,2013-03-10 06:58:00,
2013-03-10 03:13:00,37.3,32.0,30.30,SSE,149,0.0,-999.0,81,-99.99,,,0.00,weatherlink.com 1.10,2013-03-10 07:13:00,
2013-03-10 03:28:00,37.0,32.0,30.29,SSE,149,0.0,-999.0,82,-99.99,,,0.00,weatherlink.com 1.10,2013-03-10 07:28:00,
2013-03-10 03:57:00,36.9,32.0,30.29,SSE,149,0.0,-999.0,82,-99.99,,,0.00,weatherlink.com 1.10,2013-03-10 07:57:00,
2013-03-10 04:13:00,36.2,32.0,30.28,SSE,149,0.0,-999.0,84,-99.99,,,0.00,weatherlink.com 1.10,2013-03-10 08:13:00,
2013-03-10 04:28:00,36.0,32.0,30.28,SSE,149,0.0,-999.0,84,-99.99,,,0.00,weatherlink.com 1.10,2013-03-10 08:28:00,
2013-03-10 04:58:00,35.9,32.0,30.28,SSE,149,0.0,-999.0,84,-99.99,,,0.00,weatherlink.com 1.10,2013-03-10 08:58:00,
2013-03-10 05:13:00,35.5,32.0,30.28,SSE,149,0.0,-999.0,86,-99.99,,,0.00,weatherlink.com 1.10,2013-03-10 09:13:00,
2013-03-10 05:28:00,35.2,31.0,30.28,SSE,149,0.0,-999.0,86,-99.99,,,0.00,weatherlink.com 1.10,2013-03-10 09:28:00,
2013-03-10 05:57:00,35.1,31.0,30.28,SSE,149,0.0,-999.0,86,-99.99,,,0.00,weatherlink.com 1.10,2013-03-10 09:57:00,
2013-03-10 06:13:00,34.5,31.0,30.30,SSE,149,0.0,-999.0,87,-99.99,,,0.00,weatherlink.com 1.10,2013-03-10 10:13:00,
2013-03-10 06:28:00,34.3,31.0,30.30,SSE,149,0.0,-999.0,87,-99.99,,,0.00,weatherlink.com 1.10,2013-03-10 10:28:00,
2013-03-10 06:57:00,34.2,31.0,30.30,SSE,149,0.0,-999.0,87,-99.99,,,0.00,weatherlink.com 1.10,2013-03-10 10:57:00,
2013-03-10 07:13:00,33.9,31.0,30.30,SSE,149,0.0,-999.0,87,-99.99,,,0.00,weatherlink.com 1.10,2013-03-10 11:13:00,
2013-03-10 07:28:00,33.7,30.0,30.31,SSE,149,0.0,-999.0,87,-99.99,,,0.00,weatherlink.com 1.10,2013-03-10 11:28:00,
2013-03-10 07:57:00,33.7,31.0,30.30,SSE,149,0.0,-999.0,88,-99.99,,,0.00,weatherlink.com 1.10,2013-03-10 11:57:00,
2013-03-10 08:14:00,33.3,30.0,30.32,SSE,149,0.0,-999.0,89,-99.99,,,0.00,weatherlink.com 1.10,2013-03-10 12:14:00,
2013-03-10 08:28:00,33.6,31.0,30.31,SSE,149,0.0,-999.0,89,-99.99,,,0.00,weatherlink.com 1.10,2013-03-10 12:28:00,
2013-03-10 08:58:00,33.7,31.0,30.31,SSE,149,0.0,-999.0,89,-99.99,,,0.00,weatherlink.com 1.10,2013-03-10 12:58:00,
2013-03-10 09:13:00,36.7,34.0,30.31,SSE,149,0.0,-999.0,88,-99.99,,,0.00,weatherlink.com 1.10,2013-03-10 13:13:00,
2013-03-10 09:28:00,39.1,35.0,30.31,SSE,149,0.0,-999.0,84,-99.99,,,0.00,weatherlink.com 1.10,2013-03-10 13:28:00,
2013-03-10 09:57:00,40.0,35.0,30.31,SSE,149,0.0,-999.0,82,-99.99,,,0.00,weatherlink.com 1.10,2013-03-10 13:57:00,
2013-03-10 10:13:00,47.5,34.0,30.33,SSE,149,0.0,-999.0,61,-99.99,,,0.00,weatherlink.com 1.10,2013-03-10 14:13:00,
2013-03-10 10:28:00,49.6,34.0,30.34,ESE,108,1.0,-999.0,55,-99.99,,,0.00,weatherlink.com 1.10,2013-03-10 14:28:00,
2013-03-10 10:58:00,50.0,33.0,30.34,ESE,105,1.0,-999.0,53,-99.99,,,0.00,weatherlink.com 1.10,2013-03-10 14:58:00,
2013-03-10 11:13:00,54.2,33.0,30.33,East,88,0.0,-999.0,44,-99.99,,,0.00,weatherlink.com 1.10,2013-03-10 15:13:00,
2013-03-10 11:28:00,56.1,32.0,30.32,WSW,252,0.0,-999.0,41,-99.99,,,0.00,weatherlink.com 1.10,2013-03-10 15:28:00,
2013-03-10 11:57:00,56.5,33.0,30.32,West,280,1.0,-999.0,41,-99.99,,,0.00,weatherlink.com 1.10,2013-03-10 15:57:00,
2013-03-10 12:13:00,58.4,32.0,30.31,ENE,61,0.0,-999.0,37,-99.99,,,0.00,weatherlink.com 1.10,2013-03-10 16:13:00,
2013-03-10 12:29:00,59.8,32.0,30.30,ENE,71,0.0,-999.0,35,-99.99,,,0.00,weatherlink.com 1.10,2013-03-10 16:29:00,
2013-03-10 12:57:00,60.1,32.0,30.30,ENE,77,0.0,-999.0,35,-99.99,,,0.00,weatherlink.com 1.10,2013-03-10 16:57:00,
2013-03-10 13:14:00,62.1,30.0,30.29,ENE,72,1.0,-999.0,30,-99.99,,,0.00,weatherlink.com 1.10,2013-03-10 17:14:00,
2013-03-10 13:28:00,62.2,31.0,30.28,WSW,253,0.0,-999.0,31,-99.99,,,0.00,weatherlink.com 1.10,2013-03-10 17:28:00,
2013-03-10 13:58:00,62.3,30.0,30.28,East,95,0.0,-999.0,30,-99.99,,,0.00,weatherlink.com 1.10,2013-03-10 17:58:00,
2013-03-10 14:13:00,63.6,30.0,30.26,ENE,75,1.0,-999.0,28,-99.99,,,0.00,weatherlink.com 1.10,2013-03-10 18:13:00,
2013-03-10 14:28:00,63.6,29.0,30.25,West,263,0.0,-999.0,27,-99.99,,,0.00,weatherlink.com 1.10,2013-03-10 18:28:00,
2013-03-10 14:57:00,63.6,30.0,30.25,West,263,1.0,-999.0,28,-99.99,,,0.00,weatherlink.com 1.10,2013-03-10 18:57:00,
2013-03-10 15:13:00,64.7,29.0,30.23,West,278,0.0,-999.0,26,-99.99,,,0.00,weatherlink.com 1.10,2013-03-10 19:13:00,
2013-03-10 15:29:00,65.6,30.0,30.23,NE,53,0.0,-999.0,26,-99.99,,,0.00,weatherlink.com 1.10,2013-03-10 19:29:00,
2013-03-10 15:58:00,66.1,27.0,30.23,ENE,76,1.0,-999.0,23,-99.99,,,0.00,weatherlink.com 1.10,2013-03-10 19:58:00,
2013-03-10 16:13:00,67.2,29.0,30.22,West,273,2.0,-999.0,24,-99.99,,,0.00,weatherlink.com 1.10,2013-03-10 20:13:00,
2013-03-10 16:28:00,67.4,29.0,30.22,West,265,1.0,-999.0,24,-99.99,,,0.00,weatherlink.com 1.10,2013-03-10 20:28:00,
2013-03-10 16:58:00,67.3,26.0,30.21,West,259,2.0,-999.0,21,-99.99,,,0.00,weatherlink.com 1.10,2013-03-10 20:58:00,
2013-03-10 17:13:00,67.5,26.0,30.21,West,263,0.0,-999.0,21,-99.99,,,0.00,weatherlink.com 1.10,2013-03-10 21:13:00,
2013-03-10 17:28:00,66.9,24.0,30.21,WNW,290,0.0,-999.0,20,-99.99,,,0.00,weatherlink.com 1.10,2013-03-10 21:28:00,
2013-03-10 17:58:00,66.7,24.0,30.21,WNW,290,1.0,-999.0,20,-99.99,,,0.00,weatherlink.com 1.10,2013-03-10 21:58:00,
2013-03-10 18:14:00,66.1,25.0,30.21,NNW,338,0.0,-999.0,21,-99.99,,,0.00,weatherlink.com 1.10,2013-03-10 22:14:00,
2013-03-10 18:29:00,65.9,24.0,30.21,NNW,332,3.0,-999.0,20,-99.99,,,0.00,weatherlink.com 1.10,2013-03-10 22:29:00,
2013-03-10 18:58:00,65.7,25.0,30.22,NW,313,0.0,-999.0,21,-99.99,,,0.00,weatherlink.com 1.10,2013-03-10 22:58:00,
2013-03-10 19:13:00,63.1,25.0,30.22,NW,313,0.0,-999.0,23,-99.99,,,0.00,weatherlink.com 1.10,2013-03-10 23:13:00,
2013-03-10 19:28:00,61.8,26.0,30.23,NW,313,0.0,-999.0,26,-99.99,,,0.00,weatherlink.com 1.10,2013-03-10 23:28:00,
2013-03-10 19:58:00,61.4,28.0,30.23,NW,313,0.0,-999.0,28,-99.99,,,0.00,weatherlink.com 1.10,2013-03-10 23:58:00,
2013-03-10 20:13:00,57.8,30.0,30.23,NW,313,0.0,-999.0,35,-99.99,,,0.00,weatherlink.com 1.10,2013-03-11 00:13:00,
2013-03-10 20:28:00,56.5,29.0,30.22,NW,313,0.0,-999.0,35,-99.99,,,0.00,weatherlink.com 1.10,2013-03-11 00:28:00,
2013-03-10 20:58:00,56.1,31.0,30.22,NW,313,0.0,-999.0,38,-99.99,,,0.00,weatherlink.com 1.10,2013-03-11 00:58:00,
2013-03-10 21:13:00,54.1,29.0,30.23,NW,313,0.0,-999.0,39,-99.99,,,0.00,weatherlink.com 1.10,2013-03-11 01:13:00,
2013-03-10 21:28:00,53.4,31.0,30.23,NW,313,0.0,-999.0,42,-99.99,,,0.00,weatherlink.com 1.10,2013-03-11 01:28:00,
2013-03-10 21:57:00,53.2,32.0,30.23,NW,313,0.0,-999.0,45,-99.99,,,0.00,weatherlink.com 1.10,2013-03-11 01:57:00,
2013-03-10 22:12:00,51.3,31.0,30.24,NW,313,0.0,-999.0,47,-99.99,,,0.00,weatherlink.com 1.10,2013-03-11 02:12:00,
2013-03-10 22:27:00,50.5,32.0,30.24,NW,313,0.0,-999.0,50,-99.99,,,0.00,weatherlink.com 1.10,2013-03-11 02:27:00,
2013-03-10 22:57:00,50.1,31.0,30.24,NW,313,0.0,-999.0,48,-99.99,,,0.00,weatherlink.com 1.10,2013-03-11 02:57:00,
2013-03-10 23:13:00,48.5,31.0,30.25,NW,313,0.0,-999.0,52,-99.99,,,0.00,weatherlink.com 1.10,2013-03-11 03:13:00,
2013-03-10 23:28:00,48.1,31.0,30.25,NW,313,0.0,-999.0,52,-99.99,,,0.00,weatherlink.com 1.10,2013-03-11 03:28:00,
2013-03-10 23:57:00,48.0,31.0,30.25,NW,313,0.0,-999.0,53,-99.99,,,0.00,weatherlink.com 1.10,2013-03-11 03:57:00,